Regional Weather Roundup
Issued by NWS Sioux Falls, SD

Home | Current Version | Previous Version | Text Only | Print | Product List | Glossary On
Versions: 1 2 3 4 5 6 7 8 9 10 11 12 13 14 15 16 17 18 19 20 21 22 23 24 25 26 27 28 29 30 31 32 33 34 35 36 37 38 39 40 41 42 43 44 45 46 47 48 49 50
000
ASUS43 KFSD 311702
RWRFSD

WEATHER ROUNDUP FOR SE SOUTH DAKOTA/SW MINNESOTA/NW IOWA
NATIONAL WEATHER SERVICE SIOUX FALLS SD
1200 PM CDT FRI JUL 31 2015

NOTE: "FAIR" INDICATES FEW OR NO CLOUDS BELOW 12,000 FEET WITH NO
SIGNIFICANT WEATHER AND OR OBSTRUCTIONS TO VISIBILITY.


SDZ038>040-050-052>070-311800-
SOUTHEAST SOUTH DAKOTA

CITY           SKY/WX    TMP DP  RH WIND       PRES   REMARKS
BROOKINGS      SUNNY     79  52  38 N6        30.18S
CHAMBERLAIN    SUNNY     80  57  44 E8        30.16F
HURON          SUNNY     80  55  42 SE5       30.15S
MADISON        FAIR      77  55  47 E6        30.18S
MITCHELL       SUNNY     80  59  48 E7        30.16F
SIOUX FALLS    SUNNY     80  57  45 E8        30.16S
WINNER         FAIR      87  61  41 E6        30.16S
YANKTON        SUNNY     81  70  69 E6        30.13S
$$

MNZ071-072-080-081-089-090-097-098-311800-
SOUTHWEST MINNESOTA

CITY           SKY/WX    TMP DP  RH WIND       PRES   REMARKS
FAIRMONT       SUNNY     79  54  41 NW10      30.14S
JACKSON        SUNNY     79  54  41 NW10G17   30.17S
LUVERNE        SUNNY     79  55  44 E3        30.17S
MARSHALL       SUNNY     79  50  36 N6        30.16S
MONTEVIDEO     SUNNY     81  61  50 N8        30.14F
PIPESTONE      SUNNY     79  48  34 E6        30.17F
REDWOOD FALLS  SUNNY     80  57  45 NW12      30.12F
WINDOM         SUNNY     79  52  38 NW6       30.16S
WORTHINGTON    SUNNY     79  54  41 N8        30.17S
$$

IAZ001>003-012>014-020>022-031-032-NEZ013-014-SDZ071-311800-
NORTHWEST IOWA

CITY           SKY/WX    TMP DP  RH WIND       PRES   REMARKS
DENISON        HAZE      81  68  65 CALM      30.13S VSB 1/2
ESTHERVILLE    SUNNY     79  57  46 N8        30.15F
SIOUX CITY     SUNNY     81  67  62 CALM      30.13F
SPENCER        SUNNY     82  56  40 N7        30.16S
$$

ABBREVIATIONS USED IN REMARKS
   TC - TEMPERATURE IN CELSIUS
  WCI - WIND CHILL INDEX
   HX - HEAT INDEX
  VSB - VISIBILITY



USA.gov is the U.S. government's official web portal to all federal, state and local government web resources and services.